Regional Weather Roundup
Issued by NWS

Home | Current Version | Previous Version | Graphics & Text | Print | Product List | Glossary On
Versions: 1 2 3 4 5 6 7 8 9 10 11 12 13 14 15 16 17 18 19 20 21 22 23 24 25 26 27 28 29 30 31 32 33 34 35 36 37 38 39 40 41 42 43 44 45 46 47 48 49 50
000
ASUS43 KFSD 130802
RWRSD

WEATHER ROUNDUP FOR SOUTH DAKOTA
NATIONAL WEATHER SERVICE SIOUX FALLS SD
200 AM CST SAT FEB 13 2016

NOTE: "FAIR" INDICATES FEW OR NO CLOUDS BELOW 12,000 FEET WITH NO
SIGNIFICANT WEATHER AND/OR OBSTRUCTIONS TO VISIBILITY.


SDZ001>005-009-010-012>017-130900-
NORTHWEST AND NORTH CENTRAL SOUTH DAKOTA

CITY           SKY/WX    TMP DP  RH WIND       PRES   REMARKS
BUFFALO          N/A     19  16  88 SE17      30.10F WCI   4
FAITH            N/A     14   9  80 SE20G29   30.26F WCI  -3
MOBRIDGE       CLOUDY     8   1  73 SE12      30.43F WCI  -7
$$

SDZ012>016-024>037-041>051-057-063-072>074-130900-
SOUTHWEST AND SOUTH CENTRAL SOUTH DAKOTA

CITY           SKY/WX    TMP DP  RH WIND       PRES   REMARKS
RAPID CTY ARPT CLOUDY    26  23  88 SE15      30.15F WCI  14
PIERRE         CLOUDY    11   6  81 SE18      30.43F WCI  -7
CUSTER         FOG       24  21  88 W12G17    30.09F VSB 1   WCI  13
ELLSWORTH AFB  CLOUDY    25  24  96 SE16      30.13  WCI  13
PHILIP         CLOUDY    20  15  81 E14G22    30.31F WCI   7
PINE RIDGE     CLOUDY    33  28  81 S14G23    30.19F WCI  23
WINNER         LGT SNOW  17  10  74 SE15      30.43F WCI   2
$$

SDZ004>011-016>023-039-040-130900-
NORTHEAST SOUTH DAKOTA

CITY           SKY/WX    TMP DP  RH WIND       PRES   REMARKS
ABERDEEN       CLOUDY     0  -8  69 SE5       30.60F WCI -10
WATERTOWN      CLOUDY    -5 -13  68 NE5       30.54F WCI -16
BROOKINGS      CLOUDY    -7 -12  79 CALM      30.57F
SISSETON         N/A     -9 -14  78 SW3       30.62F
$$

SDZ017-020-022-023-036>040-048>070-130900-
SOUTHEAST SOUTH DAKOTA

CITY           SKY/WX    TMP DP  RH WIND       PRES   REMARKS
SIOUX FALLS    CLOUDY    -2  -8  76 NE7       30.60F WCI -15
HURON          CLOUDY     3  -6  66 E8        30.59F WCI -10
MITCHELL       CLOUDY     5  -3  69 E8        30.59F WCI  -8
YANKTON        CLOUDY     7  -2  66 E7        30.61F WCI  -5
$$

ABBREVIATIONS USED IN REMARKS
   TC - TEMPERATURE IN CELSIUS
  WCI - WIND CHILL INDEX
   HX - HEAT INDEX
  VSB - VISIBILITY




USA.gov is the U.S. government's official web portal to all federal, state and local government web resources and services.